+ View the NASA Portal
+ Center for Near-Earth Object Studies
JPL Small-Body Database Browser
Search:
[
help
]
15175 (6113 P-L)
Classification:
Main-belt Asteroid
SPK-ID:
2015175
[
Ephemeris
|
Orbit Diagram
|
Orbital Elements
|
Mission Design
|
Physical Parameters
|
Discovery Circumstances
]
[ show orbit diagram ]
Orbital Elements at Epoch 2459200.5 (2020-Dec-17.0) TDB
Reference:
JPL 28
(heliocentric ecliptic J2000)
Element
Value
Uncertainty (1-sigma)
Units
e
.1382188115384295
3.8602e-08
a
2.559486838647415
9.0065e-09
au
q
2.205717609661317
1.0043e-07
au
i
1.174334173346884
5.3352e-06
deg
node
331.0341216744226
0.00016115
deg
peri
320.1710647453338
0.00016205
deg
M
311.256946194986
1.7041e-05
deg
t
p
2459403.006054314314
(2021-Jul-07.50605431)
7.1e-05
TDB
period
1495.642432351132
4.09
7.8944e-06
2.161e-08
d
yr
n
.2406992421538111
1.2705e-09
deg/d
Q
2.913256067633513
1.0251e-08
au
Orbit Determination Parameters
# obs. used (total)
1368
data-arc span
21794 days (59.67 yr)
first obs. used
1960-09-24
last obs. used
2020-05-26
planetary ephem.
DE441
SB-pert. ephem.
SB441-N16
condition code
0
norm. resid. RMS
.52456
source
ORB
producer
Otto Matic
solution date
2021-Apr-13 00:51:23
Additional Information
Earth MOID
= 1.18769 au
Jupiter MOID
= 2.2505 au
T_jup
= 3.422
[ show covariance matrix ]
[
Ephemeris
|
Orbit Diagram
|
Orbital Elements
|
Mission Design
|
Physical Parameters
|
Discovery Circumstances
]
Physical Parameter Table
Parameter
Symbol
Value
Units
Sigma
Reference
Notes
absolute magnitude
H
14.78
n/a
E2021B10
15175 (6113 P-L)
Discovered 1960-Sep-24 by van Houten, C. J., van Houten-Groeneveld, I., Gehrels, T. at Palomar
Reference:
20000523/Numbers.arc
Last Updated:
2004-04-19
Alternate Designations
6113 P-L
= 1997 TU7
[
Ephemeris
|
Orbit Diagram
|
Orbital Elements
|
Mission Design
|
Physical Parameters
|
Discovery Circumstances
]
2021-Apr-23 08:27 UT
(server date/time)
Site Manager:
Ryan S. Park
Webmaster
:
Alan B. Chamberlin